Location: Pisa
(43.7170°N, 10.3830°E)
Time: 13:41:55
(UTC+02:00)

ISS - Pass Details

Date: 19 May 2021
Orbit: 417 x 422 km, 51.6° (Epoch: 18 June)

Event Time Altitude Azimuth Distance (km) Brightness Sun altitude
Rises 23:42:03 0° 293° (WNW) 2,367 0.8 -22.8°
Reaches altitude 10° 23:44:31 10° 311° (NW) 1,504 -0.1 -23.0°
Maximum altitude 23:47:08 21° 2° (N) 1,018 -1.1 -23.2°
Drops below altitude 10° 23:49:46 10° 53° (NE) 1,506 -0.8 -23.4°
Enters shadow 23:50:01 - 56° (NE) 1,585 -0.7 -23.4°
